Year,Month,Day,Hour,Minute,Value (Times are PST for temperature in C)
2018,07,16,00,00,19.80
2018,07,16,00,01,19.80
2018,07,16,00,02,19.80
2018,07,16,00,03,19.80
2018,07,16,00,04,19.70
2018,07,16,00,05,19.70
2018,07,16,00,06,19.60
2018,07,16,00,07,19.60
2018,07,16,00,08,19.60
2018,07,16,00,09,19.50
2018,07,16,00,10,19.50
2018,07,16,00,11,19.50
2018,07,16,00,12,19.40
2018,07,16,00,13,19.40
2018,07,16,00,14,19.40
2018,07,16,00,15,19.40
2018,07,16,00,16,19.40
2018,07,16,00,17,19.40
2018,07,16,00,18,19.30
2018,07,16,00,19,19.30
2018,07,16,00,20,19.30
2018,07,16,00,21,19.30
2018,07,16,00,22,19.30
2018,07,16,00,23,19.30
2018,07,16,00,24,19.30
2018,07,16,00,25,19.30
2018,07,16,00,26,19.30
2018,07,16,00,27,19.30
2018,07,16,00,28,19.30
2018,07,16,00,29,19.30
2018,07,16,00,30,19.20
2018,07,16,00,31,19.20
2018,07,16,00,32,19.20
2018,07,16,00,33,19.20
2018,07,16,00,34,19.20
2018,07,16,00,35,19.20
2018,07,16,00,36,19.20
2018,07,16,00,37,19.20
2018,07,16,00,38,19.10
2018,07,16,00,39,19.10
2018,07,16,00,40,19.10
2018,07,16,00,41,19.10
2018,07,16,00,42,19.10
2018,07,16,00,43,19.10
2018,07,16,00,44,19.00
2018,07,16,00,45,19.00
2018,07,16,00,46,18.90
2018,07,16,00,47,18.90
2018,07,16,00,48,18.90
2018,07,16,00,49,18.90
2018,07,16,00,50,18.90
2018,07,16,00,51,18.80
2018,07,16,00,52,18.80
2018,07,16,00,53,18.80
2018,07,16,00,54,18.80
2018,07,16,00,55,18.70
2018,07,16,00,56,18.70
2018,07,16,00,57,18.70
2018,07,16,00,58,18.70
2018,07,16,00,59,18.60
2018,07,16,01,00,18.60
2018,07,16,01,01,18.60
2018,07,16,01,02,18.60
2018,07,16,01,03,18.50
2018,07,16,01,04,18.50
2018,07,16,01,05,18.50
2018,07,16,01,06,18.50
2018,07,16,01,07,18.50
2018,07,16,01,08,18.50
2018,07,16,01,09,18.50
2018,07,16,01,10,18.50
2018,07,16,01,11,18.50
2018,07,16,01,12,18.50
2018,07,16,01,13,18.50
2018,07,16,01,14,18.40
2018,07,16,01,15,18.40
2018,07,16,01,16,18.40
2018,07,16,01,17,18.30
2018,07,16,01,18,18.30
2018,07,16,01,19,18.30
2018,07,16,01,20,18.30
2018,07,16,01,21,18.30
2018,07,16,01,22,18.20
2018,07,16,01,23,18.20
2018,07,16,01,24,18.20
2018,07,16,01,25,18.20
2018,07,16,01,26,18.20
2018,07,16,01,27,18.20
2018,07,16,01,28,18.20
2018,07,16,01,29,18.20
2018,07,16,01,30,18.20
2018,07,16,01,31,18.20
2018,07,16,01,32,18.20
2018,07,16,01,33,18.20
2018,07,16,01,34,18.20
2018,07,16,01,35,18.20
2018,07,16,01,36,18.20
2018,07,16,01,37,18.20
2018,07,16,01,38,18.10
2018,07,16,01,39,18.10
2018,07,16,01,40,18.10
2018,07,16,01,41,18.10
2018,07,16,01,42,18.10
2018,07,16,01,43,18.10
2018,07,16,01,44,18.10
2018,07,16,01,45,18.10
2018,07,16,01,46,18.10
2018,07,16,01,47,18.10
2018,07,16,01,48,18.10
2018,07,16,01,49,18.00
2018,07,16,01,50,18.00
2018,07,16,01,51,18.00
2018,07,16,01,52,18.00
2018,07,16,01,53,18.00
2018,07,16,01,54,18.00
2018,07,16,01,55,17.90
2018,07,16,01,56,17.90
2018,07,16,01,57,17.90
2018,07,16,01,58,17.90
2018,07,16,01,59,17.90
2018,07,16,02,00,17.80
2018,07,16,02,01,17.80
2018,07,16,02,02,17.80
2018,07,16,02,03,17.80
2018,07,16,02,04,17.70
2018,07,16,02,05,17.70
2018,07,16,02,06,17.70
2018,07,16,02,07,17.60
2018,07,16,02,08,17.60
2018,07,16,02,09,17.60
2018,07,16,02,10,17.60
2018,07,16,02,11,17.60
2018,07,16,02,12,17.60
2018,07,16,02,13,17.60
2018,07,16,02,14,17.60
2018,07,16,02,15,17.60
2018,07,16,02,16,17.50
2018,07,16,02,17,17.50
2018,07,16,02,18,17.50
2018,07,16,02,19,17.50
2018,07,16,02,20,17.50
2018,07,16,02,21,17.40
2018,07,16,02,22,17.40
2018,07,16,02,23,17.40
2018,07,16,02,24,17.40
2018,07,16,02,25,17.40
2018,07,16,02,26,17.40
2018,07,16,02,27,17.30
2018,07,16,02,28,17.30
2018,07,16,02,29,17.30
2018,07,16,02,30,17.30
2018,07,16,02,31,17.30
2018,07,16,02,32,17.30
2018,07,16,02,33,17.30
2018,07,16,02,34,17.30
2018,07,16,02,35,17.20
2018,07,16,02,36,17.20
2018,07,16,02,37,17.20
2018,07,16,02,38,17.20
2018,07,16,02,39,17.20
2018,07,16,02,40,17.20
2018,07,16,02,41,17.20
2018,07,16,02,42,17.20
2018,07,16,02,43,17.20
2018,07,16,02,44,17.20
2018,07,16,02,45,17.20
2018,07,16,02,46,17.20
2018,07,16,02,47,17.20
2018,07,16,02,48,17.20
2018,07,16,02,49,17.20
2018,07,16,02,50,17.20
2018,07,16,02,51,17.10
2018,07,16,02,52,17.10
2018,07,16,02,53,17.10
2018,07,16,02,54,17.10
2018,07,16,02,55,17.10
2018,07,16,02,56,17.10
2018,07,16,02,57,17.00
2018,07,16,02,58,17.00
2018,07,16,02,59,17.00
2018,07,16,03,00,17.00
2018,07,16,03,01,17.00
2018,07,16,03,02,17.00
2018,07,16,03,03,17.00
2018,07,16,03,04,17.00
2018,07,16,03,05,17.00
2018,07,16,03,06,16.90
2018,07,16,03,07,16.90
2018,07,16,03,08,16.90
2018,07,16,03,09,16.90
2018,07,16,03,10,16.90
2018,07,16,03,11,16.90
2018,07,16,03,12,16.90
2018,07,16,03,13,16.80
2018,07,16,03,14,16.80
2018,07,16,03,15,16.80
2018,07,16,03,16,16.80
2018,07,16,03,17,16.80
2018,07,16,03,18,16.80
2018,07,16,03,19,16.80
2018,07,16,03,20,16.80
2018,07,16,03,21,16.70
2018,07,16,03,22,16.70
2018,07,16,03,23,16.70
2018,07,16,03,24,16.70
2018,07,16,03,25,16.70
2018,07,16,03,26,16.60
2018,07,16,03,27,16.60
2018,07,16,03,28,16.60
2018,07,16,03,29,16.60
2018,07,16,03,30,16.60
2018,07,16,03,31,16.50
2018,07,16,03,32,16.50
2018,07,16,03,33,16.50
2018,07,16,03,34,16.50
2018,07,16,03,35,16.40
2018,07,16,03,36,16.40
2018,07,16,03,37,16.40
2018,07,16,03,38,16.40
2018,07,16,03,39,16.30
2018,07,16,03,40,16.30
2018,07,16,03,41,16.30
2018,07,16,03,42,16.30
2018,07,16,03,43,16.30
2018,07,16,03,44,16.30
2018,07,16,03,45,16.20
2018,07,16,03,46,16.20
2018,07,16,03,47,16.20
2018,07,16,03,48,16.20
2018,07,16,03,49,16.20
2018,07,16,03,50,16.20
2018,07,16,03,51,16.10
2018,07,16,03,52,16.10
2018,07,16,03,53,16.10
2018,07,16,03,54,16.10
2018,07,16,03,55,16.00
2018,07,16,03,56,16.00
2018,07,16,03,57,16.00
2018,07,16,03,58,15.90
2018,07,16,03,59,15.90
2018,07,16,04,00,15.90
2018,07,16,04,01,15.90
2018,07,16,04,02,15.90
2018,07,16,04,03,15.90
2018,07,16,04,04,15.90
2018,07,16,04,05,15.90
2018,07,16,04,06,15.90
2018,07,16,04,07,15.90
2018,07,16,04,08,15.90
2018,07,16,04,09,15.90
2018,07,16,04,10,15.90
2018,07,16,04,11,15.80
2018,07,16,04,12,15.80
2018,07,16,04,13,15.80
2018,07,16,04,14,15.80
2018,07,16,04,15,15.80
2018,07,16,04,16,15.80
2018,07,16,04,17,15.80
2018,07,16,04,18,15.80
2018,07,16,04,19,15.80
2018,07,16,04,20,15.80
2018,07,16,04,21,15.80
2018,07,16,04,22,15.80
2018,07,16,04,23,15.80
2018,07,16,04,24,15.70
2018,07,16,04,25,15.70
2018,07,16,04,26,15.70
2018,07,16,04,27,15.70
2018,07,16,04,28,15.70
2018,07,16,04,29,15.70
2018,07,16,04,30,15.60
2018,07,16,04,31,15.60
2018,07,16,04,32,15.60
2018,07,16,04,33,15.60
2018,07,16,04,34,15.60
2018,07,16,04,35,15.50
2018,07,16,04,36,15.50
2018,07,16,04,37,15.50
2018,07,16,04,38,15.50
2018,07,16,04,39,15.50
2018,07,16,04,40,15.40
2018,07,16,04,41,15.40
2018,07,16,04,42,15.40
2018,07,16,04,43,15.40
2018,07,16,04,44,15.50
2018,07,16,04,45,15.50
2018,07,16,04,46,15.50
2018,07,16,04,47,15.50
2018,07,16,04,48,15.50
2018,07,16,04,49,15.50
2018,07,16,04,50,15.50
2018,07,16,04,51,15.40
2018,07,16,04,52,15.40
2018,07,16,04,53,15.40
2018,07,16,04,54,15.40
2018,07,16,04,55,15.30
2018,07,16,04,56,15.30
2018,07,16,04,57,15.30
2018,07,16,04,58,15.30
2018,07,16,04,59,15.30
2018,07,16,05,00,15.20
2018,07,16,05,01,15.20
2018,07,16,05,02,15.20
2018,07,16,05,03,15.20
2018,07,16,05,04,15.10
2018,07,16,05,05,15.10
2018,07,16,05,06,15.00
2018,07,16,05,07,15.00
2018,07,16,05,08,15.00
2018,07,16,05,09,15.00
2018,07,16,05,10,15.00
2018,07,16,05,11,15.00
2018,07,16,05,12,15.00
2018,07,16,05,13,15.00
2018,07,16,05,14,15.00
2018,07,16,05,15,15.00
2018,07,16,05,16,15.00
2018,07,16,05,17,15.00
2018,07,16,05,18,15.00
2018,07,16,05,19,15.00
2018,07,16,05,20,15.00
2018,07,16,05,21,15.00
2018,07,16,05,22,15.00
2018,07,16,05,23,15.00
2018,07,16,05,24,15.00
2018,07,16,05,25,15.00
2018,07,16,05,26,15.00
2018,07,16,05,27,15.00
2018,07,16,05,28,15.00
2018,07,16,05,29,15.00
2018,07,16,05,30,15.00
2018,07,16,05,31,15.00
2018,07,16,05,32,15.00
2018,07,16,05,33,14.90
2018,07,16,05,34,14.90
2018,07,16,05,35,14.90
2018,07,16,05,36,14.90
2018,07,16,05,37,14.90
2018,07,16,05,38,14.90
2018,07,16,05,39,14.90
2018,07,16,05,40,14.90
2018,07,16,05,41,14.80
2018,07,16,05,42,14.80
2018,07,16,05,43,14.80
2018,07,16,05,44,14.80
2018,07,16,05,45,14.80
2018,07,16,05,46,14.80
2018,07,16,05,47,14.80
2018,07,16,05,48,14.80
2018,07,16,05,49,14.80
2018,07,16,05,50,14.70
2018,07,16,05,51,14.70
2018,07,16,05,52,14.70
2018,07,16,05,53,14.70
2018,07,16,05,54,14.70
2018,07,16,05,55,14.70
2018,07,16,05,56,14.70
2018,07,16,05,57,14.70
2018,07,16,05,58,14.70
2018,07,16,05,59,14.70
2018,07,16,06,00,14.70
2018,07,16,06,01,14.70
2018,07,16,06,02,14.70
2018,07,16,06,03,14.70
2018,07,16,06,04,14.70
2018,07,16,06,05,14.70
2018,07,16,06,06,14.70
2018,07,16,06,07,14.70
2018,07,16,06,08,14.70
2018,07,16,06,09,14.70
2018,07,16,06,10,14.70
2018,07,16,06,11,14.70
2018,07,16,06,12,14.70
2018,07,16,06,13,14.70
2018,07,16,06,14,14.70
2018,07,16,06,15,14.70
2018,07,16,06,16,14.70
2018,07,16,06,17,14.70
2018,07,16,06,18,14.70
2018,07,16,06,19,14.70
2018,07,16,06,20,14.70
2018,07,16,06,21,14.70
2018,07,16,06,22,14.70
2018,07,16,06,23,14.70
2018,07,16,06,24,14.70
2018,07,16,06,25,14.70
2018,07,16,06,26,14.70
2018,07,16,06,27,14.70
2018,07,16,06,28,14.70
2018,07,16,06,29,14.70
2018,07,16,06,30,14.70
2018,07,16,06,31,14.70
2018,07,16,06,32,14.70
2018,07,16,06,33,14.70
2018,07,16,06,34,14.70
2018,07,16,06,35,14.70
2018,07,16,06,36,14.70
2018,07,16,06,37,14.70
2018,07,16,06,38,14.70
2018,07,16,06,39,14.70
2018,07,16,06,40,14.80
2018,07,16,06,41,14.80
2018,07,16,06,42,14.80
2018,07,16,06,43,14.80
2018,07,16,06,44,14.80
2018,07,16,06,45,14.80
2018,07,16,06,46,14.80
2018,07,16,06,47,14.80
2018,07,16,06,48,14.80
2018,07,16,06,49,14.90
2018,07,16,06,50,14.90
2018,07,16,06,51,14.90
2018,07,16,06,52,14.90
2018,07,16,06,53,15.00
2018,07,16,06,54,15.00
2018,07,16,06,55,15.00
2018,07,16,06,56,15.00
2018,07,16,06,57,15.00
2018,07,16,06,58,15.00
2018,07,16,06,59,15.00
2018,07,16,07,00,15.00
2018,07,16,07,01,15.00
2018,07,16,07,02,15.00
2018,07,16,07,03,15.00
2018,07,16,07,04,15.00
2018,07,16,07,05,15.00
2018,07,16,07,06,15.00
2018,07,16,07,07,15.20
2018,07,16,07,08,15.30
2018,07,16,07,09,15.40
2018,07,16,07,10,15.50
2018,07,16,07,11,15.60
2018,07,16,07,12,15.70
2018,07,16,07,13,15.90
2018,07,16,07,14,16.00
2018,07,16,07,15,16.10
2018,07,16,07,16,16.30
2018,07,16,07,17,16.40
2018,07,16,07,18,16.50
2018,07,16,07,19,16.60
2018,07,16,07,20,16.70
2018,07,16,07,21,16.80
2018,07,16,07,22,16.90
2018,07,16,07,23,17.00
2018,07,16,07,24,17.10
2018,07,16,07,25,17.20
2018,07,16,07,26,17.30
2018,07,16,07,27,17.40
2018,07,16,07,28,17.50
2018,07,16,07,29,17.60
2018,07,16,07,30,17.70
2018,07,16,07,31,17.80
2018,07,16,07,32,17.90
2018,07,16,07,33,18.00
2018,07,16,07,34,18.10
2018,07,16,07,35,18.20
2018,07,16,07,36,18.20
2018,07,16,07,37,18.30
2018,07,16,07,38,18.40
2018,07,16,07,39,18.50
2018,07,16,07,40,18.60
2018,07,16,07,41,18.70
2018,07,16,07,42,18.80
2018,07,16,07,43,18.90
2018,07,16,07,44,19.10
2018,07,16,07,45,19.20
2018,07,16,07,46,19.40
2018,07,16,07,47,19.50
2018,07,16,07,48,19.70
2018,07,16,07,49,19.80
2018,07,16,07,50,19.80
2018,07,16,07,51,19.90
2018,07,16,07,52,20.00
2018,07,16,07,53,20.10
2018,07,16,07,54,20.20
2018,07,16,07,55,20.30
2018,07,16,07,56,20.50
2018,07,16,07,57,20.60
2018,07,16,07,58,20.70
2018,07,16,07,59,20.90
2018,07,16,08,00,21.10
2018,07,16,08,01,21.20
2018,07,16,08,02,21.40
2018,07,16,08,03,21.60
2018,07,16,08,04,21.80
2018,07,16,08,05,22.00
2018,07,16,08,06,22.20
2018,07,16,08,07,22.40
2018,07,16,08,08,22.50
2018,07,16,08,09,22.60
2018,07,16,08,10,22.70
2018,07,16,08,11,22.80
2018,07,16,08,12,22.80
2018,07,16,08,13,22.90
2018,07,16,08,14,23.00
2018,07,16,08,15,23.10
2018,07,16,08,16,23.20
2018,07,16,08,17,23.30
2018,07,16,08,18,23.40
2018,07,16,08,19,23.40
2018,07,16,08,20,23.40
2018,07,16,08,21,23.40
2018,07,16,08,22,23.40
2018,07,16,08,23,23.30
2018,07,16,08,24,23.30
2018,07,16,08,25,23.20
2018,07,16,08,26,23.10
2018,07,16,08,27,23.00
2018,07,16,08,28,22.90
2018,07,16,08,29,22.90
2018,07,16,08,30,22.80
2018,07,16,08,31,22.80
2018,07,16,08,32,22.80
2018,07,16,08,33,22.70
2018,07,16,08,34,22.70
2018,07,16,08,35,22.60
2018,07,16,08,36,22.40
2018,07,16,08,37,22.30
2018,07,16,08,38,22.20
2018,07,16,08,39,22.10
2018,07,16,08,40,22.10
2018,07,16,08,41,22.00
2018,07,16,08,42,21.90
2018,07,16,08,43,21.80
2018,07,16,08,44,21.80
2018,07,16,08,45,21.80
2018,07,16,08,46,21.80
2018,07,16,08,47,21.80
2018,07,16,08,48,21.80
2018,07,16,08,49,21.80
2018,07,16,08,50,21.90
2018,07,16,08,51,21.90
2018,07,16,08,52,22.00
2018,07,16,08,53,22.10
2018,07,16,08,54,22.10
2018,07,16,08,55,22.20
2018,07,16,08,56,22.30
2018,07,16,08,57,22.40
2018,07,16,08,58,22.50
2018,07,16,08,59,22.50
2018,07,16,09,00,22.60
2018,07,16,09,01,22.60
2018,07,16,09,02,22.70
2018,07,16,09,03,22.80
2018,07,16,09,04,22.80
2018,07,16,09,05,22.80
2018,07,16,09,06,22.90
2018,07,16,09,07,22.90
2018,07,16,09,08,22.90
2018,07,16,09,09,22.90
2018,07,16,09,10,22.90
2018,07,16,09,11,23.00
2018,07,16,09,12,23.10
2018,07,16,09,13,23.10
2018,07,16,09,14,23.20
2018,07,16,09,15,23.30
2018,07,16,09,16,23.40
2018,07,16,09,17,23.50
2018,07,16,09,18,23.60
2018,07,16,09,19,23.70
2018,07,16,09,20,23.80
2018,07,16,09,21,23.80
2018,07,16,09,22,23.80
2018,07,16,09,23,23.80
2018,07,16,09,24,23.70
2018,07,16,09,25,23.70
2018,07,16,09,26,23.70
2018,07,16,09,27,23.80
2018,07,16,09,28,23.80
2018,07,16,09,29,23.90
2018,07,16,09,30,23.90
2018,07,16,09,31,23.80
2018,07,16,09,32,23.80
2018,07,16,09,33,23.80
2018,07,16,09,34,23.80
2018,07,16,09,35,23.80
2018,07,16,09,36,23.80
2018,07,16,09,37,23.90
2018,07,16,09,38,24.00
2018,07,16,09,39,24.00
2018,07,16,09,40,24.00
2018,07,16,09,41,24.10
2018,07,16,09,42,24.10
2018,07,16,09,43,24.10
2018,07,16,09,44,24.10
2018,07,16,09,45,24.10
2018,07,16,09,46,24.20
2018,07,16,09,47,24.20
2018,07,16,09,48,24.20
2018,07,16,09,49,24.30
2018,07,16,09,50,24.30
2018,07,16,09,51,24.30
2018,07,16,09,52,24.40
2018,07,16,09,53,24.40
2018,07,16,09,54,24.40
2018,07,16,09,55,24.50
2018,07,16,09,56,24.60
2018,07,16,09,57,24.70
2018,07,16,09,58,24.70
2018,07,16,09,59,24.80
2018,07,16,10,00,24.90
2018,07,16,10,01,25.00
2018,07,16,10,02,25.00
2018,07,16,10,03,25.10
2018,07,16,10,04,25.20
2018,07,16,10,05,25.20
2018,07,16,10,06,25.30
2018,07,16,10,07,25.30
2018,07,16,10,08,25.30
2018,07,16,10,09,25.30
2018,07,16,10,10,25.40
2018,07,16,10,11,25.40
2018,07,16,10,12,25.40
2018,07,16,10,13,25.30
2018,07,16,10,14,25.20
2018,07,16,10,15,25.20
2018,07,16,10,16,25.10
2018,07,16,10,17,25.10
2018,07,16,10,18,25.10
2018,07,16,10,19,25.20
2018,07,16,10,20,25.20
2018,07,16,10,21,25.30
2018,07,16,10,22,25.30
2018,07,16,10,23,25.40
2018,07,16,10,24,25.40
2018,07,16,10,25,25.50
2018,07,16,10,26,25.50
2018,07,16,10,27,25.60
2018,07,16,10,28,25.70
2018,07,16,10,29,25.60
2018,07,16,10,30,25.60
2018,07,16,10,31,25.50
2018,07,16,10,32,25.50
2018,07,16,10,33,25.40
2018,07,16,10,34,25.40
2018,07,16,10,35,25.40
2018,07,16,10,36,25.30
2018,07,16,10,37,25.30
2018,07,16,10,38,25.30
2018,07,16,10,39,25.30
2018,07,16,10,40,25.30
2018,07,16,10,41,25.30
2018,07,16,10,42,25.40
2018,07,16,10,43,25.40
2018,07,16,10,44,25.40
2018,07,16,10,45,25.40
2018,07,16,10,46,25.30
2018,07,16,10,47,25.30
2018,07,16,10,48,25.30
2018,07,16,10,49,25.30
2018,07,16,10,50,25.30
2018,07,16,10,51,25.30
2018,07,16,10,52,25.40
2018,07,16,10,53,25.40
2018,07,16,10,54,25.40
2018,07,16,10,55,25.40
2018,07,16,10,56,25.40
2018,07,16,10,57,25.50
2018,07,16,10,58,25.50
2018,07,16,10,59,25.50
2018,07,16,11,00,25.50
2018,07,16,11,01,25.50
2018,07,16,11,02,25.60
2018,07,16,11,03,25.60
2018,07,16,11,04,25.60
2018,07,16,11,05,25.70
2018,07,16,11,06,25.70
2018,07,16,11,07,25.70
2018,07,16,11,08,25.70
2018,07,16,11,09,25.70
2018,07,16,11,10,25.80
2018,07,16,11,11,25.90
2018,07,16,11,12,25.90
2018,07,16,11,13,25.90
2018,07,16,11,14,26.00
2018,07,16,11,15,26.10
2018,07,16,11,16,26.20
2018,07,16,11,17,26.20
2018,07,16,11,18,26.30
2018,07,16,11,19,26.30
2018,07,16,11,20,26.30
2018,07,16,11,21,26.40
2018,07,16,11,22,26.40
2018,07,16,11,23,26.40
2018,07,16,11,24,26.50
2018,07,16,11,25,26.60
2018,07,16,11,26,26.70
2018,07,16,11,27,26.60
2018,07,16,11,28,26.60
2018,07,16,11,29,26.60
2018,07,16,11,30,26.70
2018,07,16,11,31,26.70
2018,07,16,11,32,26.70
2018,07,16,11,33,26.60
2018,07,16,11,34,26.60
2018,07,16,11,35,26.60
2018,07,16,11,36,26.70
2018,07,16,11,37,26.70
2018,07,16,11,38,26.70
2018,07,16,11,39,26.70
2018,07,16,11,40,26.70
2018,07,16,11,41,26.60
2018,07,16,11,42,26.60
2018,07,16,11,43,26.60
2018,07,16,11,44,26.70
2018,07,16,11,45,26.70
2018,07,16,11,46,26.60
2018,07,16,11,47,26.60
2018,07,16,11,48,26.70
2018,07,16,11,49,26.70
2018,07,16,11,50,26.70
2018,07,16,11,51,26.80
2018,07,16,11,52,26.80
2018,07,16,11,53,26.90
2018,07,16,11,54,26.90
2018,07,16,11,55,27.00
2018,07,16,11,56,27.00
2018,07,16,11,57,27.00
2018,07,16,11,58,27.00
2018,07,16,11,59,27.00
2018,07,16,12,00,27.00
2018,07,16,12,01,27.00
2018,07,16,12,02,27.00
2018,07,16,12,03,27.00
2018,07,16,12,04,27.10
2018,07,16,12,05,27.00
2018,07,16,12,06,27.00
2018,07,16,12,07,26.90
2018,07,16,12,08,26.90
2018,07,16,12,09,26.90
2018,07,16,12,10,26.80
2018,07,16,12,11,26.80
2018,07,16,12,12,26.80
2018,07,16,12,13,26.80
2018,07,16,12,14,26.80
2018,07,16,12,15,26.80
2018,07,16,12,16,26.80
2018,07,16,12,17,26.70
2018,07,16,12,18,26.70
2018,07,16,12,19,26.70
2018,07,16,12,20,26.70
2018,07,16,12,21,26.70
2018,07,16,12,22,26.70
2018,07,16,12,23,26.80
2018,07,16,12,24,26.80
2018,07,16,12,25,26.80
2018,07,16,12,26,26.80
2018,07,16,12,27,26.80
2018,07,16,12,28,26.90
2018,07,16,12,29,26.90
2018,07,16,12,30,27.00
2018,07,16,12,31,27.10
2018,07,16,12,32,27.10
2018,07,16,12,33,27.20
2018,07,16,12,34,27.20
2018,07,16,12,35,27.20
2018,07,16,12,36,27.20
2018,07,16,12,37,27.10
2018,07,16,12,38,27.10
2018,07,16,12,39,27.20
2018,07,16,12,40,27.20
2018,07,16,12,41,27.20
2018,07,16,12,42,27.30
2018,07,16,12,43,27.30
2018,07,16,12,44,27.30
2018,07,16,12,45,27.40
2018,07,16,12,46,27.50
2018,07,16,12,47,27.50
2018,07,16,12,48,27.50
2018,07,16,12,49,27.60
2018,07,16,12,50,27.60
2018,07,16,12,51,27.60
2018,07,16,12,52,27.70
2018,07,16,12,53,27.70
2018,07,16,12,54,27.60
2018,07,16,12,55,27.60
2018,07,16,12,56,27.60
2018,07,16,12,57,27.70
2018,07,16,12,58,27.70
2018,07,16,12,59,27.80
2018,07,16,13,00,27.90
2018,07,16,13,01,28.00
2018,07,16,13,02,28.10
2018,07,16,13,03,28.10
2018,07,16,13,04,28.10
2018,07,16,13,05,28.20
2018,07,16,13,06,28.10
2018,07,16,13,07,28.10
2018,07,16,13,08,28.20
2018,07,16,13,09,28.20
2018,07,16,13,10,28.20
2018,07,16,13,11,28.10
2018,07,16,13,12,28.10
2018,07,16,13,13,28.10
2018,07,16,13,14,28.10
2018,07,16,13,15,28.10
2018,07,16,13,16,28.10
2018,07,16,13,17,28.10
2018,07,16,13,18,28.10
2018,07,16,13,19,28.20
2018,07,16,13,20,28.20
2018,07,16,13,21,28.30
2018,07,16,13,22,28.40
2018,07,16,13,23,28.40
2018,07,16,13,24,28.40
2018,07,16,13,25,28.30
2018,07,16,13,26,28.30
2018,07,16,13,27,28.30
2018,07,16,13,28,28.30
2018,07,16,13,29,28.30
2018,07,16,13,30,28.40
2018,07,16,13,31,28.40
2018,07,16,13,32,28.40
2018,07,16,13,33,28.40
2018,07,16,13,34,28.40
2018,07,16,13,35,28.40
2018,07,16,13,36,28.50
2018,07,16,13,37,28.50
2018,07,16,13,38,28.50
2018,07,16,13,39,28.50
2018,07,16,13,40,28.50
2018,07,16,13,41,28.40
2018,07,16,13,42,28.40
2018,07,16,13,43,28.40
2018,07,16,13,44,28.40
2018,07,16,13,45,28.40
2018,07,16,13,46,28.40
2018,07,16,13,47,28.30
2018,07,16,13,48,28.40
2018,07,16,13,49,28.40
2018,07,16,13,50,28.40
2018,07,16,13,51,28.40
2018,07,16,13,52,28.40
2018,07,16,13,53,28.40
2018,07,16,13,54,28.50
2018,07,16,13,55,28.50
2018,07,16,13,56,28.60
2018,07,16,13,57,28.60
2018,07,16,13,58,28.70
2018,07,16,13,59,28.80
2018,07,16,14,00,28.80
2018,07,16,14,01,28.80
2018,07,16,14,02,28.80
2018,07,16,14,03,28.80
2018,07,16,14,04,28.80
2018,07,16,14,05,28.90
2018,07,16,14,06,28.90
2018,07,16,14,07,28.90
2018,07,16,14,08,28.90
2018,07,16,14,09,28.80
2018,07,16,14,10,28.80
2018,07,16,14,11,28.80
2018,07,16,14,12,28.80
2018,07,16,14,13,28.70
2018,07,16,14,14,28.80
2018,07,16,14,15,28.80
2018,07,16,14,16,28.80
2018,07,16,14,17,28.90
2018,07,16,14,18,28.90
2018,07,16,14,19,28.90
2018,07,16,14,20,28.80
2018,07,16,14,21,28.80
2018,07,16,14,22,28.80
2018,07,16,14,23,28.80
2018,07,16,14,24,28.70
2018,07,16,14,25,28.70
2018,07,16,14,26,28.70
2018,07,16,14,27,28.80
2018,07,16,14,28,28.90
2018,07,16,14,29,28.90
2018,07,16,14,30,28.90
2018,07,16,14,31,29.00
2018,07,16,14,32,29.00
2018,07,16,14,33,29.00
2018,07,16,14,34,29.00
2018,07,16,14,35,29.00
2018,07,16,14,36,29.10
2018,07,16,14,37,29.10
2018,07,16,14,38,29.10
2018,07,16,14,39,29.00
2018,07,16,14,40,29.00
2018,07,16,14,41,28.90
2018,07,16,14,42,28.90
2018,07,16,14,43,28.90
2018,07,16,14,44,28.90
2018,07,16,14,45,29.00
2018,07,16,14,46,29.10
2018,07,16,14,47,29.10
2018,07,16,14,48,29.10
2018,07,16,14,49,29.20
2018,07,16,14,50,29.20
2018,07,16,14,51,29.20
2018,07,16,14,52,29.20
2018,07,16,14,53,29.20
2018,07,16,14,54,29.20
2018,07,16,14,55,29.20
2018,07,16,14,56,29.20
2018,07,16,14,57,29.20
2018,07,16,14,58,29.20
2018,07,16,14,59,29.30
2018,07,16,15,00,29.30
2018,07,16,15,01,29.30
2018,07,16,15,02,29.30
2018,07,16,15,03,29.30
2018,07,16,15,04,29.40
2018,07,16,15,05,29.40
2018,07,16,15,06,29.50
2018,07,16,15,07,29.60
2018,07,16,15,08,29.70
2018,07,16,15,09,29.70
2018,07,16,15,10,29.70
2018,07,16,15,11,29.80
2018,07,16,15,12,29.80
2018,07,16,15,13,29.80
2018,07,16,15,14,29.70
2018,07,16,15,15,29.60
2018,07,16,15,16,29.50
2018,07,16,15,17,29.50
2018,07,16,15,18,29.40
2018,07,16,15,19,29.40
2018,07,16,15,20,29.50
2018,07,16,15,21,29.40
2018,07,16,15,22,29.30
2018,07,16,15,23,29.30
2018,07,16,15,24,29.20
2018,07,16,15,25,29.20
2018,07,16,15,26,29.20
2018,07,16,15,27,29.30
2018,07,16,15,28,29.30
2018,07,16,15,29,29.40
2018,07,16,15,30,29.40
2018,07,16,15,31,29.50
2018,07,16,15,32,29.50
2018,07,16,15,33,29.60
2018,07,16,15,34,29.70
2018,07,16,15,35,29.80
2018,07,16,15,36,29.90
2018,07,16,15,37,29.90
2018,07,16,15,38,30.10
2018,07,16,15,39,30.10
2018,07,16,15,40,30.20
2018,07,16,15,41,30.20
2018,07,16,15,42,30.20
2018,07,16,15,43,30.30
2018,07,16,15,44,30.30
2018,07,16,15,45,30.30
2018,07,16,15,46,30.30
2018,07,16,15,47,30.30
2018,07,16,15,48,30.30
2018,07,16,15,49,30.30
2018,07,16,15,50,30.20
2018,07,16,15,51,30.10
2018,07,16,15,52,30.00
2018,07,16,15,53,30.00
2018,07,16,15,54,30.00
2018,07,16,15,55,30.10
2018,07,16,15,56,30.20
2018,07,16,15,57,30.20
2018,07,16,15,58,30.30
2018,07,16,15,59,30.30
2018,07,16,16,00,30.30
2018,07,16,16,01,30.40
2018,07,16,16,02,30.40
2018,07,16,16,03,30.40
2018,07,16,16,04,30.40
2018,07,16,16,05,30.50
2018,07,16,16,06,30.50
2018,07,16,16,07,30.60
2018,07,16,16,08,30.60
2018,07,16,16,09,30.70
2018,07,16,16,10,30.80
2018,07,16,16,11,30.80
2018,07,16,16,12,30.80
2018,07,16,16,13,30.80
2018,07,16,16,14,30.80
2018,07,16,16,15,30.80
2018,07,16,16,16,30.80
2018,07,16,16,17,30.70
2018,07,16,16,18,30.70
2018,07,16,16,19,30.70
2018,07,16,16,20,30.70
2018,07,16,16,21,30.80
2018,07,16,16,22,30.80
2018,07,16,16,23,30.90
2018,07,16,16,24,31.00
2018,07,16,16,25,31.00
2018,07,16,16,26,31.10
2018,07,16,16,27,31.10
2018,07,16,16,28,31.10
2018,07,16,16,29,31.20
2018,07,16,16,30,31.20
2018,07,16,16,31,31.30
2018,07,16,16,32,31.40
2018,07,16,16,33,31.50
2018,07,16,16,34,31.50
2018,07,16,16,35,31.50
2018,07,16,16,36,31.60
2018,07,16,16,37,31.60
2018,07,16,16,38,31.60
2018,07,16,16,39,31.60
2018,07,16,16,40,31.60
2018,07,16,16,41,31.50
2018,07,16,16,42,31.50
2018,07,16,16,43,31.50
2018,07,16,16,44,31.50
2018,07,16,16,45,31.50
2018,07,16,16,46,31.40
2018,07,16,16,47,31.40
2018,07,16,16,48,31.40
2018,07,16,16,49,31.40
2018,07,16,16,50,31.40
2018,07,16,16,51,31.40
2018,07,16,16,52,31.50
2018,07,16,16,53,31.50
2018,07,16,16,54,31.50
2018,07,16,16,55,31.60
2018,07,16,16,56,31.60
2018,07,16,16,57,31.60
2018,07,16,16,58,31.60
2018,07,16,16,59,31.60
2018,07,16,17,00,31.60
2018,07,16,17,01,31.60
2018,07,16,17,02,31.60
2018,07,16,17,03,31.70
2018,07,16,17,04,31.70
2018,07,16,17,05,31.70
2018,07,16,17,06,31.70
2018,07,16,17,07,31.70
2018,07,16,17,08,31.70
2018,07,16,17,09,31.70
2018,07,16,17,10,31.70
2018,07,16,17,11,31.60
2018,07,16,17,12,31.60
2018,07,16,17,13,31.60
2018,07,16,17,14,31.50
2018,07,16,17,15,31.50
2018,07,16,17,16,31.40
2018,07,16,17,17,31.40
2018,07,16,17,18,31.50
2018,07,16,17,19,31.50